BAGASKAR Weather Reports


time (UTC)temp
C
wind
direction
speed
KPH
gust
KPH
rain 1hr
cm
rain 24hr
cm
rain mn
cm
humidity
%
barometer
mb
20260506122721 8 249 32.2 45.1 0.00 0.00 0.00 59 1014.4
20260506120721 8 245 33.8 41.8 0.00 0.00 0.00 65 1014.5
20260506114722 8 246 33.8 45.1 0.00 0.00 0.00 62 1014.4
20260506112721 7 241 32.2 38.6 0.00 0.00 0.00 72 1014.4
20260506110721 7 243 32.2 37.0 0.00 0.00 0.00 87 1014.5
20260506104722 7 245 33.8 38.6 0.00 0.00 0.00 81 1014.4
20260506102722 7 243 32.2 38.6 0.00 0.00 0.00 80 1014.3
20260506100722 7 243 30.6 37.0 0.00 0.00 0.00 81 1014.1
20260506094722 7 243 27.4 32.2 0.00 0.00 0.00 85 1014.1
20260506092722 8 244 27.4 32.2 0.00 0.00 0.00 76 1013.7
20260506090722 8 245 24.1 29.0 0.00 0.00 0.00 69 1013.6
20260506084722 9 257 24.1 30.6 0.00 0.00 0.00 70 1013.6
20260506082722 9 252 24.1 29.0 0.00 0.00 0.00 76 1013.5
20260506080722 8 244 27.4 30.6 0.00 0.00 0.00 81 1013.4
20260506072722 6 237 24.1 27.4 0.00 0.00 0.00 86 1013.2
20260506070722 7 248 17.7 20.9 0.00 0.00 0.00 65 1013.1
20260506060721 6 296 12.9 20.9 0.00 0.00 0.00 69 1012.8
20260506050721 5 304 12.9 19.3 0.00 0.00 0.00 78 1012.2
20260506044721 5 299 12.9 20.9 0.00 0.00 0.00 82 1011.9
20260506042721 4 286 12.9 19.3 0.00 0.00 0.00 87 1011.8
20260506040721 4 283 12.9 19.3 0.00 0.00 0.00 90 1011.6
20260506034721 3 279 16.1 22.5 0.00 0.00 0.00 93 1011.5
20260506032721 3 274 16.1 17.7 0.00 0.00 0.00 95 1011.3
20260506030721 3 274 14.5 17.7 0.00 0.00 0.00 95 1011.0
20260506024721 2 268 16.1 19.3 0.00 0.00 0.00 100 1010.8
20260506022721 2 272 14.5 19.3 0.00 0.00 0.00 100 1010.7
20260506020721 3 293 14.5 19.3 0.00 0.00 0.00 93 1010.5
20260506014721 3 293 14.5 19.3 0.00 0.00 0.00 94 1010.3
20260506012720 3 292 14.5 20.9 0.00 0.00 0.00 92 1010.2
20260506010721 3 294 14.5 17.7 0.00 0.00 0.00 92 1010.0
20260506004720 3 290 12.9 17.7 0.00 0.00 0.00 95 1009.9
20260506002720 3 292 14.5 19.3 0.00 0.00 0.00 91 1009.8
20260506000720 3 299 14.5 20.9 0.00 0.00 0.00 90 1009.7
20260505234720 3 296 16.1 24.1 0.00 0.00 0.00 87 1009.6
20260505232721 3 300 14.5 20.9 0.00 0.00 0.00 86 1009.5
20260505230720 3 300 14.5 22.5 0.00 0.00 0.00 86 1009.4
20260505224720 3 293 19.3 25.7 0.00 0.00 0.00 83 1009.2
20260505222720 3 296 20.9 29.0 0.00 0.00 0.00 82 1009.2
20260505220720 3 299 19.3 27.4 0.00 0.00 0.00 79 1009.1
20260505214720 4 300 19.3 32.2 0.00 0.00 0.00 78 1009.0
20260505212720 4 289 19.3 30.6 0.00 0.00 0.00 79 1008.9
20260505210720 4 288 17.7 27.4 0.00 0.00 0.00 75 1008.8
20260505204720 5 292 17.7 29.0 0.00 0.00 0.00 71 1008.6
20260505202720 5 292 20.9 30.6 0.00 0.00 0.00 67 1008.4
20260505200719 5 289 19.3 27.4 0.00 0.00 0.00 67 1008.2
20260505194719 5 285 16.1 27.4 0.00 0.00 0.00 68 1008.1
20260505192720 5 293 17.7 25.7 0.00 0.00 0.00 65 1008.1
20260505190719 5 296 20.9 30.6 0.00 0.00 0.00 63 1007.8
20260505184719 6 285 20.9 27.4 0.00 0.00 0.00 73 1007.7
20260505182719 5 269 27.4 33.8 0.00 0.00 0.00 98 1007.4
20260505180719 5 262 30.6 38.6 0.00 0.00 0.00 100 1007.1
20260505174719 5 260 30.6 38.6 0.00 0.00 0.00 100 1007.0
20260505172718 6 261 35.4 43.5 0.00 0.00 0.00 98 1006.9
20260505170718 6 261 33.8 41.8 0.00 0.00 0.00 96 1006.8
20260505164718 6 261 33.8 38.6 0.00 0.00 0.00 96 1006.8
20260505162719 6 266 29.0 35.4 0.00 0.00 0.00 94 1006.8
20260505160719 7 258 33.8 38.6 0.00 0.00 0.00 89 1006.7
20260505152718 8 259 33.8 41.8 0.00 0.00 0.00 70 1006.5
20260505150718 8 267 29.0 40.2 0.00 0.00 0.00 49 1006.3
20260505124718 9 253 38.6 45.1 0.00 0.00 0.00 78 1005.4